Back to catalog

CZ-6A DEB

AlivePO
NORAD 55204·DEBRIS·🇨🇳 China

Launched Nov 11, 2022 from Taiyuan Satellite Launch Center

Loading…

Next Passes (next 24 hours)

TLE

FreshSource: Space-Track

Epoch: Sep 14, 2026, 15:41 UTC

1 55204U 22151VV  26257.65372868  .00019755  00000-0  19258-2 0  9998
2 55204  98.6128 341.3246 0050992 318.6999  41.0364 14.91526856199177

Track CZ-6A DEB in real time with AllMySat

Download on the App Store